Weather History for Sterling Muni, Sterling, CO, CO

Change the Weather History Date:

Wednesday, February 5, 2014

  Actual Average Record
Temperature  
Mean Temperature -11 °F -  
Max Temperature 1 °F 37 °F 1 °F (2014)
Min Temperature -23 °F 12 °F -23 °F (2014)
Degree Days  
Heating Degree Days 76    
Moisture  
Dew Point -17 °F    
Average Humidity 76    
Maximum Humidity 84    
Minimum Humidity 61    
Precipitation  
Precipitation 0.00 in - - ()
Sea Level Pressure  
Sea Level Pressure 30.41 in    
Wind  
Wind Speed 2 mph (WSW)    
Max Wind Speed 7 mph    
Max Gust Speed -    
Visibility 10 miles    
Events      
Averages and records for this station are not official NWS values.
T = Trace of Precipitation, MM = Missing Value Source: NWS Daily Summary

Daily Weather History Graph

Daily Weather History Graph

Search for Another Location

Airport:

Trip Planner

Search our weather history database for the weather conditions in past years. The results will help you decide how hot, cold, wet, or windy it might be!

Date:

Astronomy

Feb. 05, 2014 Rise Set
Actual Time 6:58 AM MST 5:16 PM MST
Civil Twilight 6:30 AM MST 5:44 PM MST
Nautical Twilight 5:57 AM MST 6:17 PM MST
Astronomical Twilight 5:25 AM MST 6:49 PM MST
Moon 10:12 AM MST (2/5) No Moon Set
Length of Visible Light 11h 14m
Length of Day
10h 17m
Waxing Crescent, 40% of the Moon is Illuminated
Feb 5
Waxing Crescent
Feb 6
First Quarter
Feb 14
Full
Feb 22
Last Quarter
Mar 1
New

Hourly Weather History & Observations

Time (MST) Temp. Windchill Dew Point Humidity Pressure Visibility Wind Dir Wind Speed Gust Speed Precip Events Conditions
12:10 AM -9.4 °F -20.9 °F -13.0 °F 84% 30.38 in 10.0 mi North 4.6 mph - N/A   Clear
12:30 AM -9.4 °F - -13.0 °F 84% 30.38 in 10.0 mi Calm Calm - N/A   Clear
12:50 AM -9.4 °F - -14.8 °F 77% 30.38 in 10.0 mi Calm Calm - N/A   Clear
1:10 AM -11.2 °F - -14.8 °F 84% 30.39 in 10.0 mi Calm Calm - N/A   Clear
1:30 AM -14.8 °F - -18.4 °F 84% 30.39 in 10.0 mi Calm Calm - N/A   Clear
1:50 AM -14.8 °F - -18.4 °F 84% 30.40 in 10.0 mi Calm Calm - N/A   Clear
2:10 AM -14.8 °F -27.2 °F -18.4 °F 84% 30.41 in 10.0 mi North 4.6 mph - N/A   Clear
2:30 AM -14.8 °F -24.8 °F -18.4 °F 84% 30.41 in 10.0 mi NNW 3.5 mph - N/A   Clear
2:50 AM -18.4 °F - -23.8 °F 76% 30.41 in 10.0 mi Calm Calm - N/A   Clear
3:10 AM -18.4 °F - -23.8 °F 76% 30.40 in 10.0 mi Calm Calm - N/A   Clear
3:30 AM -18.4 °F - -22.0 °F 84% 30.40 in 10.0 mi Calm Calm - N/A   Clear
3:50 AM -16.6 °F -26.8 °F -22.0 °F 76% 30.40 in 10.0 mi North 3.5 mph - N/A   Clear
4:10 AM -20.2 °F -33.5 °F -25.6 °F 76% 30.41 in 10.0 mi NW 4.6 mph - N/A   Clear
4:30 AM -20.2 °F -33.5 °F -25.6 °F 76% 30.42 in 10.0 mi West 4.6 mph - N/A   Clear
4:50 AM -20.2 °F -33.5 °F -25.6 °F 76% 30.41 in 10.0 mi NW 4.6 mph - N/A   Clear
5:10 AM -18.4 °F -33.4 °F -25.6 °F 70% 30.43 in 10.0 mi WNW 5.8 mph - N/A   Clear
5:30 AM -16.6 °F -26.8 °F -22.0 °F 76% 30.42 in 10.0 mi NNW 3.5 mph - N/A   Clear
5:50 AM -18.4 °F - -22.0 °F 84% 30.42 in 10.0 mi Calm Calm - N/A   Clear
6:10 AM -22.0 °F -37.7 °F -27.4 °F 76% 30.43 in 10.0 mi SSW 5.8 mph - N/A   Clear
6:30 AM -23.8 °F -39.8 °F -27.4 °F 83% 30.44 in 10.0 mi SW 5.8 mph - N/A   Clear
6:50 AM -23.8 °F -37.7 °F -27.4 °F 83% 30.44 in 10.0 mi SSW 4.6 mph - N/A   Clear
7:10 AM -23.8 °F - -29.2 °F 76% 30.45 in 10.0 mi Calm Calm - N/A   Clear
7:30 AM -22.0 °F - -27.4 °F 76% 30.45 in 10.0 mi Calm Calm - N/A   Clear
7:50 AM -22.0 °F - -27.4 °F 76% 30.46 in 10.0 mi Calm Calm - N/A   Clear
8:10 AM -22.0 °F -35.6 °F -27.4 °F 76% 30.46 in 10.0 mi SSE 4.6 mph - N/A   Clear
8:30 AM -18.4 °F -28.9 °F -23.8 °F 76% 30.47 in 5.0 mi South 3.5 mph - N/A   Haze
8:50 AM -16.6 °F - -22.0 °F 76% 30.47 in 10.0 mi Calm Calm - N/A   Clear
9:10 AM -14.8 °F - -20.2 °F 77% 30.47 in 10.0 mi Calm Calm - N/A   Clear
9:30 AM -14.8 °F -30.8 °F -18.4 °F 84% 30.48 in 10.0 mi SSW 6.9 mph - N/A   Clear
9:50 AM -13.0 °F -25.1 °F -16.6 °F 84% 30.48 in 10.0 mi SSW 4.6 mph - N/A   Clear
10:10 AM -9.4 °F -22.7 °F -14.8 °F 77% 30.48 in 10.0 mi SW 5.8 mph - N/A   Clear
10:30 AM -9.4 °F -18.6 °F -14.8 °F 77% 30.47 in 10.0 mi SW 3.5 mph - N/A   Clear
10:50 AM -7.6 °F -16.5 °F -13.0 °F 77% 30.47 in 10.0 mi SW 3.5 mph - N/A   Clear
11:10 AM -5.8 °F -16.7 °F -13.0 °F 71% 30.46 in 10.0 mi SSW 4.6 mph - N/A   Clear
11:30 AM -5.8 °F - -11.2 °F 77% 30.45 in 10.0 mi Calm Calm - N/A   Clear
11:50 AM -4.0 °F - -13.0 °F 65% 30.44 in 10.0 mi Calm Calm - N/A   Clear
12:10 PM -4.0 °F - -11.2 °F 71% 30.43 in 10.0 mi Calm Calm - N/A   Clear
12:30 PM -2.2 °F - -11.2 °F 66% 30.43 in 10.0 mi Calm Calm - N/A   Clear
12:50 PM -2.2 °F - -9.4 °F 71% 30.41 in 10.0 mi Calm Calm - N/A   Clear
1:10 PM -0.4 °F - -9.4 °F 66% 30.41 in 10.0 mi Calm Calm - N/A   Clear
1:30 PM -0.4 °F - -9.4 °F 66% 30.40 in 10.0 mi Calm Calm - N/A   Clear
1:50 PM -0.4 °F - -9.4 °F 66% 30.39 in 10.0 mi Calm Calm - N/A   Clear
2:10 PM -0.4 °F -8.3 °F -9.4 °F 66% 30.40 in 10.0 mi SSW 3.5 mph - N/A   Clear
2:30 PM -0.4 °F - -9.4 °F 66% 30.40 in 10.0 mi Calm Calm - N/A   Clear
2:50 PM -0.4 °F - -9.4 °F 66% 30.40 in 10.0 mi Calm Calm - N/A   Clear
3:10 PM 1.4 °F - -9.4 °F 61% 30.40 in 10.0 mi Calm Calm - N/A   Clear
3:30 PM -0.4 °F - -9.4 °F 66% 30.40 in 10.0 mi Calm Calm - N/A   Clear
3:50 PM -0.4 °F - -9.4 °F 66% 30.40 in 10.0 mi Calm Calm - N/A   Clear
4:10 PM -0.4 °F - -9.4 °F 66% 30.40 in 10.0 mi Calm Calm - N/A   Scattered Clouds
4:30 PM -0.4 °F -8.3 °F -9.4 °F 66% 30.40 in 10.0 mi SSW 3.5 mph - N/A   Clear
4:50 PM -2.2 °F -10.4 °F -11.2 °F 66% 30.39 in 10.0 mi SSW 3.5 mph - N/A   Clear
5:10 PM -4.0 °F -12.4 °F -13.0 °F 65% 30.39 in 10.0 mi SSW 3.5 mph - N/A   Scattered Clouds
5:30 PM -5.8 °F -14.5 °F -13.0 °F 71% 30.40 in 10.0 mi SW 3.5 mph - N/A   Mostly Cloudy
5:50 PM -5.8 °F -14.5 °F -13.0 °F 71% 30.40 in 10.0 mi SW 3.5 mph - N/A   Scattered Clouds
6:10 PM -7.6 °F - -13.0 °F 77% 30.40 in 10.0 mi Calm Calm - N/A   Clear
6:30 PM -7.6 °F - -13.0 °F 77% 30.40 in 10.0 mi Calm Calm - N/A   Clear
6:50 PM -7.6 °F -16.5 °F -14.8 °F 71% 30.39 in 10.0 mi SSE 3.5 mph - N/A   Clear
7:10 PM -9.4 °F - -14.8 °F 77% 30.39 in 10.0 mi Calm Calm - N/A   Clear
7:30 PM -9.4 °F - -14.8 °F 77% 30.40 in 10.0 mi Calm Calm - N/A   Clear
7:50 PM -9.4 °F - -14.8 °F 77% 30.39 in 10.0 mi Calm Calm - N/A   Clear
8:10 PM -11.2 °F -20.6 °F -14.8 °F 84% 30.39 in 10.0 mi West 3.5 mph - N/A   Clear
8:30 PM -13.0 °F -25.1 °F -16.6 °F 84% 30.39 in 10.0 mi WSW 4.6 mph - N/A   Clear
8:50 PM -14.8 °F -24.8 °F -18.4 °F 84% 30.39 in 10.0 mi West 3.5 mph - N/A   Scattered Clouds
9:10 PM -14.8 °F -24.8 °F -20.2 °F 77% 30.39 in 10.0 mi WSW 3.5 mph - N/A   Scattered Clouds
9:30 PM -18.4 °F -31.4 °F -23.8 °F 76% 30.38 in 10.0 mi WSW 4.6 mph - N/A   Scattered Clouds
9:50 PM -14.8 °F -24.8 °F -18.4 °F 84% 30.38 in 10.0 mi West 3.5 mph - N/A   Overcast
10:10 PM -14.8 °F -24.8 °F -18.4 °F 84% 30.36 in 10.0 mi WSW 3.5 mph - N/A   Overcast
10:30 PM -13.0 °F - -18.4 °F 77% 30.36 in 10.0 mi Calm Calm - N/A   Overcast
10:50 PM -13.0 °F - -16.6 °F 84% 30.35 in 10.0 mi Calm Calm - N/A   Overcast
11:10 PM -14.8 °F - -18.4 °F 84% 30.35 in 10.0 mi Calm Calm - N/A   Overcast
11:30 PM -14.8 °F - -18.4 °F 84% 30.35 in 10.0 mi Calm Calm - N/A   Mostly Cloudy
11:50 PM -14.8 °F - -18.4 °F 84% 30.34 in 10.0 mi Calm Calm - N/A   Overcast